User: anonymous   Login
Location: Unspecified
(0.0000°N, 0.0000°E)
Time: 17:26:18
(UTC+01:00)
Language:

Cosmos 1125 Rocket - Orbit

View from above orbital plane
View from above orbital plane
View from above satellite
View from above satellite

Ground track
Ground track

The orbit data is extracted from the following two-line orbital elements,

1 11511U 79078B   15025.86110084  .00000103  00000-0  44045-4 0  9996
2 11511 074.0378 120.2638 0016289 221.9337 278.0738 14.36548926853217
Epoch (UTC): 25 January 2015 20:39:59
Eccentricity: 0.0016289
inclination: 74.0378°
perigee height: 758 km
apogee height: 781 km
right ascension of ascending node: 120.2638°
argument of perigee: 221.9337°
revolutions per day: 14.36548926
mean anomaly at epoch: 278.0738°
orbit number at epoch: 85321

The dashed part of the orbit path shows where the satellite is in the earth's shadow,  

DLR